Tracking 34717 objects as of 14-Jul-2026
HD Live streaming from Space Station
objects crossing your sky now

STARLINK-32327

Track STARLINK-32327 now!
10-day predictions
STARLINK-32327 is classified as:


NORAD ID: 61641
Int'l Code: 2024-191W
Perigee: 489.4 km
Apogee: 491.0 km
Inclination: 43.0 °
Period: 94.3 minutes
Semi major axis: 6861 km
RCS: Unknown
Launch date: October 23, 2024
Source: United States (US)
Launch site: AIR FORCE EASTERN TEST RANGE (AFETR)
Your satellite tracking list
Your tracking list is empty




NASA's NSSDC Master Catalog

Two Line Element Set (TLE):
1 61641U 24191W   26194.39644341 -.00001035  00000-0 -28094-4 0  9999
2 61641  43.0004 164.3993 0001140 267.1360  92.9361 15.27568258 96764
Source of the keplerian elements: AFSPC